Weather History for George, South Africa

Change the Weather History Date:

Monday, May 27, 2013

  Actual Average Record
Temperature  
Mean Temperature 63 °F -  
Max Temperature 71 °F 65 °F 87 °F (2004)
Min Temperature 53 °F 45 °F 42 °F (2002)
Degree Days  
Heating Degree Days 2    
Growing Degree Days 13 (Base 50)    
Moisture  
Dew Point 49 °F    
Average Humidity 65    
Maximum Humidity 94    
Minimum Humidity 24    
Precipitation  
Precipitation 0.00 in - - ()
Sea Level Pressure  
Sea Level Pressure 29.89 in    
Wind  
Wind Speed 9 mph ()    
Max Wind Speed 22 mph    
Max Gust Speed -    
Visibility 8.0 miles    
Events Rain    
Averages and records for this station are not official NWS values.
T = Trace of Precipitation, MM = Missing Value Source: Averaged Metar Reports

Daily Weather History Graph

Daily Weather History Graph

Search for Another Location

Airport:

Trip Planner

Search our weather history database for the weather conditions in past years. The results will help you decide how hot, cold, wet, or windy it might be!

Date:

Astronomy

May. 27, 2013 Rise Set
Actual Time 7:24 AM SAST 5:30 PM SAST
Civil Twilight 6:57 AM SAST 5:58 PM SAST
Nautical Twilight 6:26 AM SAST 6:28 PM SAST
Astronomical Twilight 5:56 AM SAST 6:58 PM SAST
Moon 8:12 PM SAST (5/27) 9:30 AM SAST (5/27)
Length of Visible Light 11h 01m
Length of Day
10h 06m
Waning Gibbous, 93% of the Moon is Illuminated
May 27
Waning Gibbous
May 31
Last Quarter
Jun 8
New
Jun 16
First Quarter
Jun 23
Full

Hourly Weather History & Observations

Time (SAST) Temp. Dew Point Humidity Pressure Visibility Wind Dir Wind Speed Gust Speed Precip Events Conditions
12:00 AM 59.0 °F 51.8 °F 77% 29.80 in 6.2 mi SW 6.9 mph - N/A   Mostly Cloudy
1:00 AM 60.8 °F 51.8 °F 72% 29.80 in 6.2 mi Variable 2.3 mph - N/A   Mostly Cloudy
2:00 AM 58 °F 51 °F 72% 29.82 in 19 mi South 4.6 mph - -  
2:00 AM 57.2 °F 51.8 °F 82% 29.80 in 6.2 mi South 4.6 mph - N/A   Partly Cloudy
3:00 AM 57.2 °F 55.4 °F 94% 29.83 in 5.6 mi Variable 2.3 mph - N/A   Mostly Cloudy
4:00 AM 57.2 °F 55.4 °F 94% 29.83 in 6.2 mi NW 5.8 mph - N/A   Mostly Cloudy
5:00 AM 58 °F 54 °F 82% 29.85 in 4 mi West 16.1 mph - - Rain Light Rain
5:00 AM 57.2 °F 55.4 °F 94% 29.83 in 4.3 mi West 15.0 mph - N/A Rain Light Rain
6:00 AM 55.4 °F 51.8 °F 88% 29.83 in 6.2 mi WNW 12.7 mph - N/A   Mostly Cloudy
7:00 AM 57.2 °F 50.0 °F 77% 29.86 in 6.2 mi WNW 13.8 mph - N/A   Scattered Clouds
8:00 AM 56 °F 50 °F 75% 29.88 in 12 mi West 6.9 mph - -   Scattered Clouds
8:00 AM 57.2 °F 50.0 °F 77% 29.86 in 6.2 mi West 8.1 mph - N/A   Partly Cloudy
9:00 AM 59.0 °F 50.0 °F 72% 29.89 in 6.2 mi WNW 9.2 mph - N/A   Partly Cloudy
10:00 AM 64.4 °F 50.0 °F 59% 29.89 in 6.2 mi WNW 13.8 mph - N/A   Partly Cloudy
11:00 AM 67 °F 46 °F 36% 29.91 in 12 mi West 18.4 mph - -   Scattered Clouds
11:00 AM 66.2 °F 46.4 °F 49% 29.89 in 6.2 mi West 19.6 mph - N/A   Partly Cloudy
12:00 PM 68.0 °F 42.8 °F 40% 29.89 in 6.2 mi WNW 21.9 mph - N/A   Partly Cloudy
1:00 PM 69.8 °F 42.8 °F 38% 29.89 in 6.2 mi WNW 19.6 mph - N/A   Partly Cloudy
2:00 PM 71 °F 42 °F 24% 29.87 in 19 mi West 20.7 mph - -   Scattered Clouds
2:00 PM 69.8 °F 42.8 °F 38% 29.89 in 6.2 mi West 20.7 mph - N/A   Partly Cloudy
3:00 PM 69.8 °F 46.4 °F 43% 29.86 in 6.2 mi West 18.4 mph - N/A   Partly Cloudy
4:00 PM 68.0 °F 46.4 °F 46% 29.89 in 6.2 mi West 17.3 mph - N/A   Partly Cloudy
5:00 PM 65 °F 48 °F 44% 29.91 in 19 mi WSW 13.8 mph - -   Scattered Clouds
5:00 PM 64.4 °F 48.2 °F 56% 29.92 in 6.2 mi WSW 13.8 mph - N/A   Partly Cloudy
6:00 PM 59.0 °F 48.2 °F 67% 29.95 in 6.2 mi West 6.9 mph - N/A   Scattered Clouds
7:00 PM 59.0 °F 50.0 °F 72% 29.98 in - WNW 4.6 mph - N/A   Clear
8:00 PM 57 °F 47 °F 61% 30.00 in 12 mi WSW 9.2 mph - -   Scattered Clouds
8:00 PM 55.4 °F 46.4 °F 72% 29.98 in 6.2 mi WSW 9.2 mph - N/A   Partly Cloudy
9:00 PM 55.4 °F 46.4 °F 72% 30.01 in 6.2 mi West 8.1 mph - N/A   Partly Cloudy
10:00 PM 55.4 °F 46.4 °F 72% 30.01 in - West 8.1 mph - N/A   Clear
11:00 PM 53.6 °F 46.4 °F 77% 30.01 in - NNE 4.6 mph - N/A   Clear